ZHONGXING-26

Last updated on Fri Dec 19 2025 00:02:53 GMT+0000 (Coordinated Universal Time)

1 55686U 23023A 25352.79275899 -.00000329 00000+0 00000+0 0 9996 2 55686 0.0656 71.4693 0001003 291.0708 135.6060 1.00269879 10420
UTC large
Height (km)
Speed (km/s)
/
Latitude / Longitude
Inclination (degrees)
Orbital Period (minutes)
Azimuth
Elevation
Range (km)
Doppler Factor

Next 0 passes for location: London (51.5072 / 0.1276)

Sorry there are no passes over London.